Regional Weather Roundup
Issued by NWS

Home | Current Version | Previous Version | Text Only | Print | Product List | Glossary On
Versions: 1 2 3 4 5 6 7 8 9 10 11 12 13 14 15 16 17 18 19 20 21 22 23 24 25 26 27 28 29 30 31 32 33 34 35 36 37 38 39 40 41 42 43 44 45 46 47 48 49 50
000
ASUS43 KMKX 110211
RWRWI

WISCONSIN REGIONAL WEATHER ROUNDUP
NATIONAL WEATHER SERVICE MILWAUKEE/SULLIVAN WI
900 PM CDT THU JUL 10 2014

NOTE: "FAIR" INDICATES FEW OR NO CLOUDS BELOW 12,000 FEET WITH NO
SIGNIFICANT WEATHER AND/OR OBSTRUCTIONS TO VISIBILITY.

WIZ001-002-006>008-014>016-023>028-110300-
NORTHWEST WISCONSIN

CITY           SKY/WX    TMP DP  RH WIND       PRES   REMARKS
SUPERIOR ARPT  MOCLDY    55  50  85 NE6       29.99S
ASHLAND        MOCLDY    69  61  75 S3        30.00F
HAYWARD        CLOUDY    72  62  71 S6        30.01F
SIREN          CLOUDY    74  64  70 S7        29.99R
RICE LAKE      CLOUDY    73  64  74 SE8       30.02F
LADYSMITH      MOCLDY    74  62  67 SE3       30.05F
EAU CLAIRE     CLOUDY    74  65  73 SE7       30.02S
MENOMONIE      MOCLDY    73  67  82 SE7       30.02S
NEW RICHMOND   CLOUDY    74  61  63 S8        30.01R
OSCEOLA        CLOUDY    74  64  71 S7        30.01S
$$

WIZ003>005-009-010-017-018-110300-
NORTH CENTRAL WISCONSIN

CITY           SKY/WX    TMP DP  RH WIND       PRES   REMARKS
WOODRUFF       PTCLDY    69  59  69 S3        30.07F
RHINELANDER    PTCLDY    67  58  72 SE3       30.10R
EAGLE RIVER    CLEAR     66  54  63 S3        30.09R
LAND O LAKES   CLEAR     61  56  85 CALM      30.09S
PHILLIPS       CLOUDY    71  61  71 S6        30.05F
TOMAHAWK       PTCLDY    64  59  83 CALM      30.08F
MEDFORD        PTCLDY    68  63  84 SE5       30.07F
MERRILL        PTCLDY    70  60  72 S5        30.08S
$$

WIZ029-030-035-036-043>047-110300-
CENTRAL WISCONSIN

CITY           SKY/WX    TMP DP  RH WIND       PRES   REMARKS
WAUSAU         PTCLDY    71  61  70 S8        30.07S
MOSINEE        MOCLDY    70  63  78 S3        30.10S
MARSHFIELD     PTCLDY    69  64  84 S6        30.08S
STEVENS POINT  PTCLDY    69  59  70 SE5       30.10S
WAUPACA        MOCLDY    73  60  65 SE5       30.11R
WAUTOMA        MOCLDY    72  63  73 CALM      30.10S
WISC RAPIDS    PTCLDY    71  62  73 S3        30.09S
CAMP DOUGLAS   MOCLDY    68  66  94 S3        30.08S
$$

WIZ011>013-019>022-031-037>040-048>050-110300-
NORTHEAST WISCONSIN

CITY           SKY/WX    TMP DP  RH WIND       PRES   REMARKS
ANTIGO         PTCLDY    62  58  87 SE6       30.11S
STURGEON BAY   CLEAR     61  48  63 S9        30.14S
GREEN BAY      CLEAR     66  52  60 SE8       30.13R
MANITOWOC      CLEAR     62  50  64 S8        30.15S
APPLETON       MOCLDY    68  55  64 SE10      30.13R
CLINTONVILLE   PTCLDY    70  59  68 S8        30.10R
OSHKOSH        MOCLDY    69  57  65 SE9       30.12R
$$

WIZ032>034-041-042-053>061-110300-
SOUTHWEST WISCONSIN

CITY           SKY/WX    TMP DP  RH WIND       PRES   REMARKS
LA CROSSE      MOCLDY    77  63  61 S8        30.04F HAZE
SPARTA         MOCLDY    72  60  66 S5        30.08S
VIROQUA        FAIR      71  62  71 S5        30.10R
BOSCOBEL       PTCLDY    75  61  61 S5        30.09R
PRAIRIE DU CHI MOCLDY    75  58  55 S3        30.08R
PLATTEVILLE    FAIR      69  64  81 SE7       30.12S
$$

WIZ056-057-062-063-064-067-068-110300-
SOUTH CENTRAL WISCONSIN

CITY           SKY/WX    TMP DP  RH WIND       PRES   REMARKS
BARABOO/DELLS  CLOUDY    71  61  70 S3        30.10S
LONE ROCK      PTCLDY    73  64  73 CALM      30.10S
WATERTOWN      MOCLDY    68  59  73 SE6       30.13R
MADISON        MOCLDY    75  60  59 S6        30.12R
MIDDLETON      MOCLDY    73  58  59 S6        30.12S
MONROE         PTCLDY    70  61  73 S7        30.13S
JANESVILLE     CLEAR     72  57  60 SE3       30.13R
$$

WIZ051-052-058>065-066-070>072-110300-
SOUTHEAST WISCONSIN

CITY           SKY/WX    TMP DP  RH WIND       PRES   REMARKS
MILWAUKEE      PTCLDY    65  51  60 S7        30.16R
WAUKESHA       NOT AVBL
MILWAUKEE/TIMM CLEAR     70  45  40 SE8       30.16R
RACINE         CLEAR     64  54  69 S6        30.17S
BURLINGTON     CLEAR     63  53  70 SE3       30.16R
KENOSHA        CLEAR     64  52  64 S6        30.16S
FOND DU LAC    CLEAR     66  54  65 S12       30.13S
SHEBOYGAN      CLEAR     62  53  72 S6        30.15S
WEST BEND      CLEAR     61  48  63 SE3       30.16R
JUNEAU         MOCLDY    69  44  40 SE12      30.15R
$$

LSZ147-162-110300-
LAKE SUPERIOR

STATION/POSITION TIME  TEMP    WIND        PRES    WAVE
                       AIR SEA DIR/SP/G            HT/PER
                 (UTC) (F)     (DEG/KT/KT) (MB)    (FT/S)
W MID LAKE BUOY  0150   49 39  110/ 10/ 12 1016.1F   0
PORT WING        0140   57      30/  6/  7 1015.2F
SAXON HARBOR     0100             CALM     1015.9S
$$

LMZ867-665-643>646-110300-
LAKE MICHIGAN

STATION/POSITION TIME  TEMP    WIND        PRES    WAVE
                       AIR SEA DIR/SP/G            HT/PER
                 (UTC) (F)     (DEG/KT/KT) (MB)    (FT/S)
N MID LAKE BUOY  0150   58 56  170/  6/  8 1020.3R   0
NORTHPORT PIER   0100   63     160/  6/ 12 1020.0S
ALGOMA LAKESHORE 0120          230/ 11/ 12   N/A
KEWAUNEE LAKESHO 0100   56     180/  7/  8 1021.1R
SHEBOYGAN LAKESH 0200   63     200/  8/  9 1021.3R
PORT WASHINGTON  0100   63     190/  4/  7 1021.3S
ATWATER BUOY     0130   59     160/  6     1021.8
MILWAUKEE LAKESH 0100   62     160/  7/  8   N/A
S MID LAKE BUOY  0150   63 61  140/  4/  4 1021.2R   0
KENOSHA   LAKESH 0200   65     190/  6/  7   N/A
$$

TC  - TEMPERATURE IN CELSIUS
VSB - VISIBILITY IN STATUTE MILES
WCI - WIND CHILL INDEX
HX  - HEAT INDEX



USA.gov is the U.S. government's official web portal to all federal, state and local government web resources and services.